Cortez, CO

7:17 PM MST on November 19, 2019 (GMT -0700)
Cortez Municipal

Weather History for KCEZ - September, 2019

Change the Weather History Date:

Tuesday, September 24, 2019

  Actual Average Record
Temperature  
Mean Temperature 56 °F 57 °F  
Max Temperature 75 °F 75 °F 86 °F (2015)
Min Temperature 37 °F 39 °F 26 °F (2006)
Degree Days  
Heating Degree Days 9 8  
Month to date heating degree days 84 105  
Since 1 July heating degree days 84 117  
Cooling Degree Days 0 0  
Month to date cooling degree days 67 16  
Year to date cooling degree days 547 425  
Growing Degree Days 6 (Base 50)    
Moisture  
Dew Point 40 °F    
Average Humidity 64    
Maximum Humidity 92    
Minimum Humidity 35    
Precipitation  
Precipitation 0.00 in 0.05 in 0.01 in (2012)
Month to date precipitation 0.17 1.45  
Year to date precipitation 9.95 9.89  
Sea Level Pressure  
Sea Level Pressure 30.04 in    
Wind  
Wind Speed 7 mph (ESE)    
Max Wind Speed 20 mph    
Max Gust Speed 26 mph    
Visibility 10 miles    
Events      
T = Trace of Precipitation, MM = Missing Value Source: NWS Daily Summary

Daily Weather History Graph

Daily Weather History Graph

Search for Another Location

Airport or City:

Astronomy

Sep. 24, 2019 Rise Set
Actual Time 7:03 AM MDT 7:08 PM MDT
Civil Twilight 6:37 AM MDT 7:34 PM MDT
Nautical Twilight 6:07 AM MDT 8:04 PM MDT
Astronomical Twilight 5:36 AM MDT 8:35 PM MDT
Moon 2:00 AM MDT (9/24) 4:49 PM MDT (9/24)
Length of Visible Light 12h 56m
Length of Day
12h 04m
Waning Crescent, 22% of the Moon is Illuminated
Sep 24
Waning Crescent
Sep 28
New
Oct 5
First Quarter
Oct 13
Full
Oct 21
Last Quarter

Hourly Weather History & Observations

Time (MDT) Temp. Windchill Dew Point Humidity Pressure Visibility Wind Dir Wind Speed Gust Speed Precip Events Conditions
12:53 AM 46.0 °F 43.9 °F 41.0 °F 83% 30.10 in 10.0 mi ENE 4.6 mph - N/A   Clear
1:53 AM 44.1 °F 42.5 °F 39.9 °F 85% 30.12 in 10.0 mi ENE 3.5 mph - N/A   Clear
2:53 AM 42.1 °F 37.7 °F 37.9 °F 85% 30.11 in 10.0 mi ENE 6.9 mph - N/A   Clear
3:53 AM 41.0 °F 38.0 °F 37.0 °F 86% 30.11 in 10.0 mi NE 4.6 mph - N/A   Clear
4:53 AM 39.9 °F - 37.0 °F 89% 30.12 in 10.0 mi Calm Calm - N/A   Clear
5:53 AM 39.0 °F 34.0 °F 35.1 °F 86% 30.12 in 10.0 mi ENE 6.9 mph - N/A   Clear
7:53 AM 41.0 °F 39.0 °F 36.0 °F 82% 30.15 in 10.0 mi East 3.5 mph - N/A   Clear
8:53 AM 48.9 °F - 39.0 °F 69% 30.14 in 10.0 mi Calm Calm - N/A   Clear
9:53 AM 55.9 °F - 42.1 °F 60% 30.12 in 10.0 mi Calm Calm - N/A   Clear
10:53 AM 61.0 °F - 44.1 °F 54% 30.09 in 10.0 mi Variable 3.5 mph - N/A   Clear
11:53 AM 66.0 °F - 42.1 °F 42% 30.05 in 10.0 mi South 5.8 mph - N/A   Clear
12:53 PM 69.1 °F - 43.0 °F 39% 30.03 in 10.0 mi North - - N/A   Clear
1:53 PM 72.0 °F - 45.0 °F 38% 30.00 in 10.0 mi SSW 12.7 mph - N/A   Clear
2:53 PM 73.9 °F - 46.0 °F 37% 29.98 in 10.0 mi SSW 16.1 mph - N/A   Clear
3:53 PM 73.9 °F - 46.0 °F 37% 29.96 in 10.0 mi SSW 18.4 mph - N/A   Clear
4:53 PM 73.9 °F - 46.0 °F 37% 29.96 in 10.0 mi South 12.7 mph - N/A   Clear
5:53 PM 73.0 °F - 44.1 °F 35% 29.95 in 10.0 mi SSW 11.5 mph - N/A   Clear
6:53 PM 69.1 °F - 41.0 °F 36% 29.96 in 10.0 mi SW 10.4 mph - N/A   Clear
7:53 PM 63.0 °F - 37.0 °F 38% 29.98 in 10.0 mi SSW 3.5 mph - N/A   Clear
8:53 PM 52.0 °F - 37.9 °F 59% 29.99 in 9.0 mi NE 6.9 mph - N/A   Clear
9:53 PM 50.0 °F - 36.0 °F 59% 29.99 in 10.0 mi NE 9.2 mph - N/A   Clear
10:53 PM 48.0 °F - 33.1 °F 56% 29.97 in 10.0 mi ENE 5.8 mph - N/A   Clear
11:53 PM 46.9 °F - 32.0 °F 56% 29.96 in 10.0 mi NE 9.2 mph - N/A   Clear